Regional Weather Roundup
Issued by NWS

Home | Current Version | Previous Version | Text Only | Print | Product List | Glossary On
Versions: 1 2 3 4 5 6 7 8 9 10 11 12 13 14 15 16 17 18 19 20 21 22 23 24 25 26 27 28 29 30 31 32 33 34 35 36 37 38 39 40 41 42 43 44 45 46 47 48 49 50
000
ASUS43 KDMX 261008
RWRIA

WEATHER ROUNDUP FOR IOWA
NATIONAL WEATHER SERVICE DES MOINES IA
500 AM CDT TUE JUL 26 2016

NOTE: "FAIR" INDICATES FEW OR NO CLOUDS BELOW 12,000 FEET WITH NO
SIGNIFICANT WEATHER AND/OR OBSTRUCTIONS TO VISIBILITY.

* - THESE STATIONS ARE NOT NWS STATIONS...THUS NOT UNDER NWS
QUALITY CONTROL.  THEY ALSO DO NOT REPORT WEATHER SUCH
AS PRECIPITATION OR FOG.

IAZ001>003-012>014-020>022-031>034-043>046-261100-
   NORTHWEST IOWA

CITY           SKY/WX    TMP DP  RH WIND       PRES   REMARKS
CARROLL *      CLEAR     61  61 100 CALM      30.09S
CHEROKEE *     CLEAR     62  62  99 CALM      30.09S
DENISON *      CLEAR     61  61 100 CALM      30.08S
LE MARS *      CLEAR     63  63 100 CALM      30.09S
SHELDON *      CLEAR     63  63 100 S3        30.08S
SIOUX CITY     CLEAR     65  62  90 E6        30.08S
SPENCER        CLEAR     62  60  93 SW5       30.09S
STORM LAKE *   CLEAR     64  63  94 SW5       30.10S
$$

IAZ055>058-069>071-079>083-090>094-261100-
   SOUTHWEST IOWA

CITY           SKY/WX    TMP DP  RH WIND       PRES   REMARKS
ATLANTIC *     CLEAR     61  59  94 N5        30.09S
CLARINDA *       N/A     64  64 100 MISG      30.11R
COUNCIL BLFS * CLEAR     64  64 100 NE5       30.09S
CRESTON *      CLEAR     64  61  88 CALM      30.11S
HARLAN  *      CLEAR     61  61 100 CALM      30.13S FOG
LAMONI         PTCLDY    64  63  96 N5        30.09R
RED OAK *      CLEAR     64  63  94 CALM      30.09R
SHENANDOAH *   CLEAR     63  63 100 CALM      30.09R FOG
$$

IAZ047>049-059>061-072>074-084-261100-
   CENTRAL IOWA

CITY           SKY/WX    TMP DP  RH WIND       PRES   REMARKS
AMES           CLEAR     61  61 100 CALM      30.08S
ANKENY *         N/A    N/A N/A N/A MISG        N/A
BOONE *        CLEAR     64  63  94 CALM      30.08S
CHARITON *       N/A    N/A N/A N/A MISG        N/A
DES MOINES     CLEAR     70  66  87 CALM      30.07S
GRINNELL*      CLEAR     63  61  94 CALM      30.09R
KNOXVILLE *    PTCLDY    66  63  88 CALM      30.07R
MARSHALLTOWN   CLEAR     65  64  97 CALM      30.07S
NEWTON *       CLEAR     66  64  94 NE5       30.07S
PELLA *        CLEAR     64  63  95 CALM      30.09R
PERRY *          N/A     63  63  99 CALM      30.09R FOG
$$

IAZ004>006-015-016-023>025-035-036-261100-
   NORTH CENTRAL IOWA

CITY           SKY/WX    TMP DP  RH WIND       PRES   REMARKS
ALGONA *       CLEAR     66  64  94 CALM      30.09S
ESTHERVILLE    CLEAR     64  62  93 SW6       30.08F
FORT DODGE *   CLEAR     64  63  94 CALM      30.10R
MASON CITY     CLEAR     63  61  93 S3        30.11S
FOREST CITY *    N/A     61  61 100 CALM      30.09F
IOWA FALLS *     N/A     62  60  93 CALM      30.10S
$$

IAZ007>011-017>019-026>030-037>042-050>054-066-261100-
   NORTHEAST IOWA

CITY           SKY/WX    TMP DP  RH WIND       PRES   REMARKS
CEDAR RAPIDS   CLEAR     64  64 100 NW3       30.07R
CHARLES CITY * CLEAR     63  63 100 CALM      30.09S
CLINTON *      MOCLDY    65  64  97 N6        30.07R
DECORAH *      CLEAR     63  63 100 CALM      30.08S FOG
DUBUQUE        CLEAR     65  62  90 NE5       30.09R
MONTICELLO *   FOG       61  61 100 CALM      30.08R VSB 1/4
WATERLOO       PTCLDY    64  62  93 CALM      30.07S
$$

IAZ064-065-067-068-078-261100-
   EAST CENTRAL IOWA

CITY           SKY/WX    TMP DP  RH WIND       PRES   REMARKS
DAVENPORT      PTCLDY    65  63  93 NW5       30.07S
IOWA CITY      CLEAR     66  64  93 CALM      30.07S
MT. PLEASANT *   N/A     67  67 100 CALM      30.07R
MUSCATINE *    CLEAR     66  64  94 CALM      30.06S
QUAD CITIES    PTCLDY    67  63  87 CALM      30.05S
$$

IAZ062-063-075>077-085>089-095>099-261100-
   SOUTHEAST IOWA

CITY           SKY/WX    TMP DP  RH WIND       PRES   REMARKS
BURLINGTON     CLEAR     65  65 100 N5        30.05S
FAIRFIELD *      N/A     64  63  94 N5        30.06S
KEOKUK *       CLEAR     68  66  94 CALM      30.05R
CENTERVILLE *  MOCLDY    63  63 100 CALM      30.09R FOG
OTTUMWA        CLEAR     63  61  93 N5        30.07R
WASHINGTON *   CLEAR     64  63  94 CALM      30.08R
$$

ABBREVIATIONS USED IN REMARKS
   TC - TEMPERATURES IN CELSIUS
  WCI - WIND CHILL INDEX
   HX - HEAT INDEX
  VSB - VISIBILITY
$$




USA.gov is the U.S. government's official web portal to all federal, state and local government web resources and services.